Location: El Limón
(10.3059°N, 67.6321°W)
Time: 17:10:38
(UTC+00:00)

Nadezhda 2 Rocket - Pass Details

Date: 21 December 2025
Orbit: 946 x 1011 km, 83.0° (Epoch: 11 January)

Event Time Altitude Azimuth Distance (km) Brightness Sun altitude
Rises 09:27:42 0° 147° (SSE) 3,714 8.4 -18.0°
Reaches altitude 10° 09:31:15 10° 128° (SE) 2,754 8.0 -17.2°
Maximum altitude 09:35:02 17° 90° (E) 2,293 7.4 -16.3°
Drops below altitude 10° 09:38:47 10° 53° (NE) 2,728 7.3 -15.4°
Sets 09:42:16 0° 33° (NNE) 3,662 7.7 -14.6°
